Hourly Data Report for July 08, 2021

SALLUIT
QUEBEC
Current Station Operator: ECCC - MSC

62°10'46.005" N
75°40'13.006" W
228.00 m
7117800
71641
MFX

Download Data

Hourly Data (July 2021)
Hourly Data Report for July 8, 2021
TIME
LST
Temp Definition
°C
Dew Point Definition
°C
Rel Hum Definition
%
Precip. Amount Definition
mm

Wind Dir Definition
10's deg

Wind Spd Definition
km/h
Visibility Definition
km
Stn Press Definition
kPa
Hmdx Definition


Wind Chill Definition


Weather Definition


00:00 5.0 3.1 88 0.0 18 67   97.27     LegendNANA
01:00 5.2 2.7 84 0.3 18 79   97.15     LegendNANA
02:00 5.6 3.7 87 0.0 19 66   97.16     LegendNANA
03:00 5.4 4.0 90 0.0 19 61   97.19     LegendNANA
04:00 5.4 4.0 91 0.0 20 63   97.17     LegendNANA
05:00 5.1 4.0 92 0.0 21 46   97.16     LegendNANA
06:00 6.0 4.7 91 0.0 21 65   97.06     LegendNANA
07:00 5.8 5.0 94 0.3 21 37   97.17     LegendNANA
08:00 6.0 4.8 92 0.0 19 30   97.15     LegendNANA
09:00 5.8 5.0 95 0.0 19 49   97.08     LegendNANA
10:00 5.2 4.4 95 0.0 19 25   97.16     LegendNANA
11:00 5.5 4.7 95 0.0 22 27   97.13     LegendNANA
12:00 6.0 5.0 94 0.0 21 33   97.13     LegendNANA
13:00 6.0 5.0 93 0.0 19 27   97.13     LegendNANA
14:00 6.6 5.6 93 0.0 20 20   97.16     LegendNANA
15:00 6.3 6.1 99 0.0 20 18   97.15     LegendNANA
16:00 7.0 6.9 100 0.0 21 17   97.14     LegendNANA
17:00 7.1 7.0 99 0.0 21 24   97.14     LegendNANA
18:00 6.8 6.5 98 0.0 23 17   97.17     LegendNANA
19:00 5.8 5.8 100 0.8 27 16   97.18     LegendNANA
20:00 5.1 5.1 100 0.0 27 13   97.21     LegendNANA
21:00 4.4 4.4 100 0.0 27 15   97.23     LegendNANA
22:00 3.8 3.8 100 0.0 27 15   97.24     LegendNANA
23:00 3.6 3.5 100 0.0 26 12   97.26     LegendNANA

Notes on Data Quality.

Legend

  • E = Estimated
  • M = Missing
  • NA = Not Available*
  • [empty] = Indicates an unobserved value
Date modified: